Location: Bagnara
(41.0500°N, 14.7833°E)
Time: 07:52:51
(UTC+00:00)

Meteor 2-3 Rocket - Pass Details

Date: 01 November 2021
Orbit: 842 x 885 km, 81.2° (Epoch: 30 November)

Event Time Altitude Azimuth Distance (km) Brightness Sun altitude
Rises 19:34:41 0° 339° (NNW) 3,433 7.3 -41.3°
Reaches altitude 10° 19:37:21 10° 329° (NNW) 2,499 6.6 -41.8°
Enters shadow 19:38:50 17° 319° (NW) 2,045 6.1 -42.0°
